{"data":{"norad_id":60949,"intl_designator":"2024-156E","name":"YAOGAN-43 02E","alt_names":[],"object_type":"PAYLOAD","status":"ACTIVE","operator":null,"country":"PRC","launch_date":"2024-09-03","launch_site_code":"XICLF","launch_vehicle":null,"mission":null,"orbit_class":"UNKNOWN","rcs_meters":null,"size_class":null,"mass_kg":null,"dimensions":null,"purposes":[],"wikipedia_slug":null,"has_3d_model":false,"image_url":null,"decayed_at":null,"tle_current":{"epoch":"2026-05-24T23:36:43.020864Z","epoch_age_seconds":83289,"freshness":"FRESH","line1":"1 60949U 24156E   26144.98383126  .00013185  00000+0  54768-3 0  9993","line2":"2 60949  34.9966 344.1084 0000974 217.4356 142.6291 15.23012200 95903","mean_motion":15.230122,"eccentricity":9.74e-5,"inclination_deg":34.9966,"raan_deg":344.1084,"arg_perigee_deg":217.4356,"mean_anomaly_deg":142.6291,"bstar":0.00054768,"rev_number":9590,"period_min":94.54947242051,"perigee_km":496.09129089715,"apogee_km":497.43052100923,"semimajor_km":6874.8979059532,"source":"CELESTRAK","updated_at":"2026-05-25T13:38:02.268066Z"}}}